Palacios, TX

4:04 AM CDT on June 28, 2017 (GMT -0500)
Palacios Municipal

Weather History for KPSX - February, 2013

Change the Weather History Date:

Tuesday, February 19, 2013

  Actual Average Record
Temperature  
Mean Temperature 64 °F -  
Max Temperature 73 °F 65 °F 80 °F (2017)
Min Temperature 54 °F 48 °F 31 °F (1978)
Degree Days  
Heating Degree Days 2    
Growing Degree Days 14 (Base 50)    
Moisture  
Dew Point 42 °F    
Average Humidity 51    
Maximum Humidity 68    
Minimum Humidity 23    
Precipitation  
Precipitation 0.00 in - - ()
Sea Level Pressure  
Sea Level Pressure 30.14 in    
Wind  
Wind Speed 14 mph (ENE)    
Max Wind Speed 20 mph    
Max Gust Speed 24 mph    
Visibility 10 miles    
Events Rain    
Averages and records for this station are not official NWS values.
T = Trace of Precipitation, MM = Missing Value Source: NWS Daily Summary

Daily Weather History Graph

Daily Weather History Graph

Search for Another Location

Airport or City:

Trip Planner

Search our weather history database for the weather conditions in past years. The results will help you decide how hot, cold, wet, or windy it might be!

Date:

Astronomy

Feb. 19, 2013 Rise Set
Actual Time 6:59 AM CST 6:18 PM CST
Civil Twilight 6:35 AM CST 6:42 PM CST
Nautical Twilight 6:08 AM CST 7:09 PM CST
Astronomical Twilight 5:40 AM CST 7:37 PM CST
Moon 1:05 PM CST (2/19) 2:18 AM CST (2/19)
Length of Visible Light 12h 06m
Length of Day
11h 18m
Waxing Gibbous, 67% of the Moon is Illuminated
Feb 19
Waxing Gibbous
Feb 25
Full
Mar 4
Last Quarter
Mar 11
New
Mar 19
First Quarter

Hourly Weather History & Observations

Time (CST) Temp. Dew Point Humidity Pressure Visibility Wind Dir Wind Speed Gust Speed Precip Events Conditions
12:25 AM 62.6 °F 51.8 °F 68% 30.07 in 10.0 mi NNE 17.3 mph 24.2 mph N/A   Mostly Cloudy
12:53 AM 61.0 °F 48.9 °F 64% 30.09 in 10.0 mi NNE 12.7 mph - 0.00 in Rain Light Rain
1:05 AM 60.8 °F 48.2 °F 63% 30.08 in 10.0 mi NNE 12.7 mph - 0.00 in   Overcast
1:53 AM 60.1 °F 46.0 °F 60% 30.09 in 10.0 mi NNE 13.8 mph - 0.00 in   Mostly Cloudy
2:53 AM 61.0 °F 44.1 °F 54% 30.09 in 10.0 mi NNE 12.7 mph - N/A   Overcast
3:53 AM 60.1 °F 41.0 °F 49% 30.10 in 10.0 mi NNE 16.1 mph - N/A   Mostly Cloudy
4:53 AM 55.9 °F 41.0 °F 57% 30.12 in 10.0 mi NE 11.5 mph - N/A   Partly Cloudy
5:53 AM 54.0 °F 41.0 °F 62% 30.15 in 10.0 mi NE 10.4 mph - N/A   Partly Cloudy
6:53 AM 54.0 °F 39.0 °F 57% 30.17 in 10.0 mi NE 10.4 mph - N/A   Clear
7:53 AM 55.0 °F 39.9 °F 57% 30.20 in 10.0 mi NE 10.4 mph - N/A   Clear
8:53 AM 59.0 °F 39.0 °F 48% 30.22 in 10.0 mi ENE 15.0 mph 24.2 mph N/A   Clear
9:53 AM 63.0 °F 37.9 °F 40% 30.22 in 10.0 mi NE 19.6 mph - N/A   Clear
10:53 AM 66.0 °F 37.0 °F 34% 30.22 in 10.0 mi NE 16.1 mph - N/A   Clear
12:53 PM 72.0 °F 36.0 °F 27% 30.19 in 10.0 mi East 12.7 mph 19.6 mph N/A   Clear
1:53 PM 73.0 °F 33.1 °F 23% 30.17 in 10.0 mi East 15.0 mph 23.0 mph N/A   Clear
2:53 PM 73.0 °F 35.1 °F 25% 30.15 in 10.0 mi East 10.4 mph - N/A   Clear
3:53 PM 71.1 °F 42.1 °F 35% 30.13 in 10.0 mi ESE 15.0 mph - N/A   Clear
4:53 PM 66.9 °F 46.0 °F 47% 30.14 in 10.0 mi ESE 15.0 mph - N/A   Clear
6:53 PM 60.1 °F 37.0 °F 42% 30.14 in 10.0 mi East 12.7 mph - N/A   Clear
7:53 PM 59.0 °F 42.1 °F 53% 30.15 in 10.0 mi East 11.5 mph - N/A   Clear
8:53 PM 59.0 °F 45.0 °F 60% 30.14 in 10.0 mi East 12.7 mph - N/A   Clear
9:53 PM 57.9 °F 46.0 °F 65% 30.14 in 10.0 mi East 12.7 mph - N/A   Clear
10:53 PM 60.1 °F 46.9 °F 62% 30.11 in 10.0 mi East 16.1 mph - N/A   Clear
11:53 PM 61.0 °F 48.0 °F 62% 30.07 in 10.0 mi East 17.3 mph - N/A   Clear